Content
SEND FEEDBACK

Daily
Averages
Monthly
Summary
United States of America

PRESCOTT, WASHINGTON


Home > North America > United States > Washington
Elevation: 165 feet     Latitude: 46 31N     Longitude: 118 20W

WEATHER
 
SELECT A DAY
Number of Records: 184,891;   Date Range: 1/1/95 - 7/26/14
 
SHARE

PRINT THIS DATA

[ ← Previous Day ]
WEATHER ALMANAC - FEBRUARY 5, 2013
[ Next Day → ]
[ °C ]   °F
Weather ElementAverageHighLow
Temperature41.8 °F51.1 °F (12:53 pm)35.6 °F (6:19 am)
Dewpoint36.4 °F39.9 °F (2:53 pm)33.8 °F (6:19 am)
Humidity82.2 %100 % (3:33 am)59 % (11:53 am)
Barometer29.92 in30.01 in (11:53 pm)29.88 in (4:49 am)
Wind Speed7.4 mph11.5 mph (3:33 am)
Weather ElementAverage
Visibility6.3 mi
Wind DirectionSSW (187.2 °)

Weather ElementTotal
Precipitation0.01 in
Heating Degree Days21.7 (Base 65)
Averaged from 29 records on February 5, 2013
WEATHER CONDITIONS BREAKOUT
WIND DIRECTION BREAKOUT
WEATHER BY HOUR - FEBRUARY 5, 2013
[ °C ]   °F
Local TimeTemperatureDewpointHumidityBarometerVisibilityWind DirectionWind SpeedGust SpeedPrecipitationEventsConditions
1:53 AM41.0 °F37.9 °F89 %29.91 in10.0 miSouth (190°)6.9 mphClear
2:53 AM39.0 °F37.0 °F93 %29.91 in4.0 miSSW (210°)3.5 mphClear
3:22 AM37.4 °F35.6 °F93 %29.89 in2.5 miSouth (170°)8.1 mphScattered Clouds
3:33 AM37.4 °F37.4 °F100 %29.89 in1.5 miSSE (160°)11.5 mphMostly Cloudy
3:44 AM37.4 °F35.6 °F93 %29.89 in0.5 miSSE (160°)10.4 mphFogFog
4:49 AM37.4 °F35.6 °F93 %29.88 in2.0 miSouth (180°)8.1 mphMostly Cloudy
4:53 AM37.0 °F36.0 °F96 %29.90 in1.8 miSouth (180°)6.9 mphScattered Clouds
5:03 AM37.4 °F35.6 °F93 %29.88 in2.0 miSSE (160°)4.6 mphPartly Cloudy
5:53 AM37.0 °F35.1 °F93 %29.89 in3.0 miESE (110°)5.8 mphClear
6:19 AM35.6 °F33.8 °F93 %29.88 in1.8 miWest (270°)5.8 mphClear
6:39 AM35.6 °F33.8 °F93 %29.89 in0.8 miWNW (300°)5.8 mphMostly Cloudy
7:07 AM35.6 °F33.8 °F93 %29.89 in1.5 miEast (100°)5.8 mphOvercast
7:46 AM37.4 °F35.6 °F93 %29.89 in2.5 miSE (130°)3.5 mphOvercast
7:53 AM37.0 °F36.0 °F96 %29.91 in5.0 miSE (130°)4.6 mphOvercast
8:53 AM43.0 °F37.0 °F80 %29.90 in7.0 miSE (140°)5.8 mphScattered Clouds
9:53 AM42.1 °F39.0 °F89 %29.92 in6.0 miNW (320°)6.9 mphOvercast
10:53 AM45.0 °F37.0 °F74 %29.94 in10.0 miSouth (180°)8.1 mphMostly Cloudy
11:53 AM50.0 °F36.0 °F59 %29.92 in10.0 miSouth (180°)10.4 mphMostly Cloudy
12:53 PM51.1 °F37.0 °F59 %29.91 in10.0 miWSW (240°)8.1 mphOvercast
1:53 PM50.0 °F37.9 °F63 %29.91 in10.0 miWSW (240°)5.8 mphOvercast
2:53 PM46.9 °F39.9 °F77 %29.92 in10.0 miSouth (170°)6.9 mph0.01 inOvercast
3:53 PM48.9 °F39.9 °F71 %29.93 in10.0 miSouth (190°)8.1 mph0.00 inOvercast
4:53 PM48.0 °F39.0 °F71 %29.92 in10.0 miSSW (200°)11.5 mphMostly Cloudy
5:53 PM45.0 °F36.0 °F71 %29.93 in10.0 miSouth (170°)6.9 mphPartly Cloudy
6:53 PM45.0 °F35.1 °F68 %29.94 in10.0 miSouth (170°)8.1 mphClear
8:53 PM44.1 °F36.0 °F73 %29.96 in10.0 miSSW (210°)8.1 mphOvercast
9:53 PM44.1 °F36.0 °F73 %29.99 in10.0 miSSW (200°)5.8 mphOvercast
10:53 PM44.1 °F36.0 °F73 %30.00 in10.0 miSouth (180°)10.4 mphOvercast
11:53 PM44.1 °F36.0 °F73 %30.01 in10.0 miSouth (190°)11.5 mph0.00 inMostly Cloudy
Hourly data recorded from KALW, located miles away from Prescott, Washington







STORIES FROM OUR PARTNERS